Flag for Colombia Weather past 2 weeks in Medellin, Colombia

Now
66 °F

Partly sunny.


Feels Like: 66 °F
Forecast: 62 / 82 °F
Wind: 2 mph from North

Location: Rionegro / J. M. Cordova

Current Time: Sep 1, 2015 at 9:59:13 AM

Latest Report: Sep 1, 2015 at 9:00 AM


Visibility: N/A

Pressure: 30.35 "Hg (25.53 "Hg at 1479m altitude)

Humidity: 64%

Dew point: 54 °F

Location of MedellinLocation

Historic Weather in Medellin — Graph

°F

Medellin temperature yesterday

Maximum temperature yesterday: 73 °F (at 1:00 PM)
Minimum temperature yesterday: 57 °F (at 5:00 AM)
Average temperature yesterday: 64 °F

Past Weeks' High & Low Weather Summary

 TemperatureHumidityPressure
High84 °F (Aug 22, 1:00 PM)100% (Aug 18, 12:00 AM)30.37 "Hg (Aug 18, 12:00 AM)
Low52 °F (Aug 19, 6:00 AM)37% (Aug 22, 1:00 PM)30.01 "Hg (Aug 23, 10:00 AM)
Average64 °F76%30.28 "Hg
* Reported Aug 17 8:00 AM — Sep 1 8:00 AM, Medellin, Weather by CustomWeather, © 2015

Note: Actual official high and low records may vary slightly from our data, if they occured in-between our weather recording intervals... More about our weather records

Advertising

Medellin weather history for previous 24 hours

 ConditionsComfort  
Time TempWeatherWind HumidityBarometerVisibility
8:00 AM
Tue, Sep 1
63 °FBroken clouds.2 mph77%30.35 "HgN/A
7:00 AM55 °FPartly sunny.No wind94%30.33 "HgN/A
6:00 AM54 °FSnow. Partly sunny.No wind94%30.32 "HgN/A
5:00 AM55 °FPassing clouds.No wind94%30.30 "HgN/A
4:00 AM57 °FPassing clouds.No wind94%30.28 "HgN/A
3:00 AM57 °FScattered showers. Passing clouds.5 mph94%30.31 "Hg5 mi
2:00 AM57 °FPassing clouds.5 mph94%30.32 "Hg5 mi
1:00 AM59 °FPassing clouds.No wind88%30.32 "HgN/A
12:00 AM59 °FPassing clouds.No wind88%30.34 "HgN/A
11:00 PM
Mon, Aug 31
61 °FPassing clouds.No wind88%30.35 "HgN/A
10:00 PM63 °FPassing clouds.No wind83%30.35 "HgN/A
9:00 PM63 °FPassing clouds.5 mph83%30.32 "HgN/A
8:00 PM64 °FPassing clouds.5 mph78%30.30 "HgN/A
7:00 PM66 °FPassing clouds.5 mph64%30.27 "HgN/A
6:00 PM68 °FPartly sunny.7 mph56%30.26 "HgN/A
4:00 PM73 °FScattered clouds.12 mph44%30.25 "HgN/A
3:00 PM72 °FScattered clouds.14 mph47%30.27 "HgN/A
2:00 PM72 °FPassing clouds.12 mph47%30.29 "HgN/A
1:00 PM73 °FScattered clouds.14 mph47%30.32 "HgN/A
12:00 PM70 °FScattered clouds.16 mph50%30.33 "HgN/A
11:00 AM70 °FScattered clouds.14 mph53%30.37 "HgN/A
10:00 AM70 °FScattered clouds.8 mph57%30.36 "HgN/A
9:00 AM66 °FScattered clouds.7 mph64%30.35 "HgN/A
Weather by CustomWeather, © 2015

See weather overviewHow to use our weather pages